• In Netherlands
  • List of Countries
  • For 7 days
  • Water Temperature
  • Satellite Maps
  • Weather Map
  • Weather Widgets
  • user-avatar
    Login

    Hourly Weather Tirana

    Today, 25 July, Tuesday

    Time Temperature Precipitation Wind Pressure Humidity
    00:00 +26°C° 0 mm 6 mps 746 mmHg 47%
    01:00 +27°C° 0 mm 8 mps 746 mmHg 50%
    02:00 +26°C° 0 mm 7 mps 746 mmHg 54%
    03:00 +24°C° 0 mm 6 mps 746 mmHg 58%
    04:00 +23°C° 0 mm 5 mps 746 mmHg 62%
    05:00 +26°C° 0.2 mm 5 mps 746 mmHg 59%
    06:00 +27°C° 0.2 mm 5 mps 746 mmHg 57%
    07:00 +29°C° 0 mm 4 mps 746 mmHg 54%
    08:00 +29°C° 0.2 mm 4 mps 746 mmHg 51%
    09:00 +30°C° 0.2 mm 4 mps 746 mmHg 48%
    10:00 +32°C° 0.2 mm 4 mps 746 mmHg 45%
    11:00 +33°C° 0 mm 4 mps 745 mmHg 42%
    12:00 +33°C° 0 mm 4 mps 745 mmHg 40%
    13:00 +34°C° 0 mm 4 mps 745 mmHg 38%
    14:00 +34°C° 0 mm 4 mps 745 mmHg 39%
    15:00 +33°C° 0 mm 4 mps 745 mmHg 39%
    16:00 +33°C° 0 mm 3 mps 745 mmHg 39%
    17:00 +30°C° 0 mm 3 mps 745 mmHg 46%
    18:00 +29°C° 0 mm 3 mps 745 mmHg 53%
    19:00 +27°C° 0 mm 2 mps 745 mmHg 59%
    20:00 +26°C° 0.3 mm 2 mps 746 mmHg 63%
    21:00 +25°C° 0.3 mm 3 mps 746 mmHg 67%
    22:00 +24°C° 0.3 mm 3 mps 746 mmHg 71%
    23:00 +22°C° 0.4 mm 3 mps 746 mmHg 71%

    Tomorrow, 26 July, Wednesday

    Time Temperature Precipitation Wind Pressure Humidity
    00:00 +22°C° 0.4 mm 3 mps 746 mmHg 72%
    01:00 +22°C° 0.4 mm 3 mps 746 mmHg 72%
    02:00 +22°C° 0.4 mm 3 mps 746 mmHg 72%
    03:00 +21°C° 0.4 mm 3 mps 746 mmHg 73%
    04:00 +21°C° 0.4 mm 2 mps 746 mmHg 73%
    05:00 +24°C° 0.4 mm 2 mps 746 mmHg 68%
    06:00 +25°C° 0.4 mm 2 mps 746 mmHg 63%
    07:00 +27°C° 0.4 mm 2 mps 746 mmHg 58%
    08:00 +28°C° 0.2 mm 2 mps 746 mmHg 54%
    09:00 +29°C° 0.2 mm 3 mps 746 mmHg 50%
    10:00 +30°C° 0.2 mm 4 mps 746 mmHg 46%
    11:00 +30°C° 0.2 mm 4 mps 746 mmHg 47%
    12:00 +30°C° 0.2 mm 4 mps 746 mmHg 48%
    13:00 +30°C° 0.2 mm 4 mps 746 mmHg 48%
    14:00 +30°C° 0.1 mm 4 mps 745 mmHg 48%
    15:00 +30°C° 0.1 mm 3 mps 745 mmHg 48%
    16:00 +30°C° 0.1 mm 3 mps 745 mmHg 48%
    17:00 +28°C° 0.1 mm 3 mps 745 mmHg 54%
    18:00 +26°C° 0.1 mm 3 mps 746 mmHg 61%
    19:00 +24°C° 0.1 mm 2 mps 746 mmHg 67%
    20:00 +23°C° 0.1 mm 2 mps 746 mmHg 71%
    21:00 +21°C° 0.1 mm 2 mps 747 mmHg 76%
    22:00 +22°C° 0.1 mm 1 mps 747 mmHg 80%
    23:00 +21°C° 0.1 mm 1 mps 747 mmHg 80%

    Day after tomorrow, 27 July, Thursday

    Time Temperature Precipitation Wind Pressure Humidity
    00:00 +21°C° 0.1 mm 1 mps 747 mmHg 81%
    01:00 +21°C° 0.1 mm 1 mps 747 mmHg 81%
    02:00 +19°C° 0.1 mm 2 mps 747 mmHg 82%
    03:00 +19°C° 0.1 mm 2 mps 747 mmHg 82%
    04:00 +19°C° 0.1 mm 2 mps 747 mmHg 82%
    05:00 +21°C° 0.1 mm 2 mps 747 mmHg 77%
    06:00 +23°C° 0.1 mm 2 mps 748 mmHg 71%
    07:00 +25°C° 0.1 mm 2 mps 748 mmHg 66%
    08:00 +26°C° 0 mm 2 mps 748 mmHg 59%
    09:00 +28°C° 0 mm 3 mps 748 mmHg 52%
    10:00 +29°C° 0 mm 3 mps 748 mmHg 44%
    11:00 +30°C° 0.1 mm 4 mps 748 mmHg 43%
    12:00 +32°C° 0.1 mm 5 mps 748 mmHg 42%
    13:00 +32°C° 0.1 mm 6 mps 748 mmHg 40%
    14:00 +32°C° 0.1 mm 6 mps 748 mmHg 42%
    15:00 +30°C° 0.1 mm 6 mps 748 mmHg 44%
    16:00 +30°C° 0.1 mm 6 mps 748 mmHg 46%
    17:00 +28°C° 0 mm 5 mps 749 mmHg 54%
    18:00 +26°C° 0 mm 4 mps 749 mmHg 61%
    19:00 +24°C° 0 mm 3 mps 749 mmHg 68%
    20:00 +22°C° 0 mm 3 mps 750 mmHg 72%
    21:00 +23°C° 0 mm 2 mps 750 mmHg 76%
    22:00 +21°C° 0 mm 2 mps 751 mmHg 79%
    23:00 +21°C° 0.1 mm 2 mps 751 mmHg 78%

    28 July, Friday

    Time Temperature Precipitation Wind Pressure Humidity
    00:00 +20°C° 0.1 mm 2 mps 751 mmHg 78%
    01:00 +20°C° 0.1 mm 2 mps 751 mmHg 77%
    02:00 +20°C° 0 mm 2 mps 751 mmHg 76%
    03:00 +20°C° 0 mm 2 mps 751 mmHg 74%
    04:00 +19°C° 0 mm 2 mps 752 mmHg 73%
    05:00 +21°C° 0 mm 2 mps 752 mmHg 67%
    06:00 +24°C° 0 mm 2 mps 752 mmHg 60%
    07:00 +26°C° 0 mm 2 mps 752 mmHg 53%
    08:00 +28°C° 0 mm 2 mps 752 mmHg 47%
    09:00 +30°C° 0 mm 2 mps 753 mmHg 40%
    10:00 +32°C° 0 mm 2 mps 753 mmHg 34%
    11:00 +34°C° 0 mm 2 mps 753 mmHg 32%
    12:00 +35°C° 0 mm 3 mps 753 mmHg 30%
    13:00 +35°C° 0 mm 4 mps 752 mmHg 28%
    14:00 +35°C° 0 mm 4 mps 752 mmHg 29%
    15:00 +35°C° 0 mm 4 mps 752 mmHg 30%
    16:00 +34°C° 0 mm 4 mps 752 mmHg 32%
    17:00 +31°C° 0 mm 3 mps 752 mmHg 40%
    18:00 +28°C° 0 mm 2 mps 753 mmHg 48%
    19:00 +25°C° 0 mm 2 mps 753 mmHg 56%
    20:00 +25°C° 0 mm 1 mps 753 mmHg 57%
    21:00 +24°C° 0 mm 1 mps 754 mmHg 58%
    22:00 +24°C° 0 mm 1 mps 754 mmHg 58%
    23:00 +23°C° 0 mm 1 mps 754 mmHg 57%

    29 July, Saturday

    Time Temperature Precipitation Wind Pressure Humidity
    00:00 +23°C° 0 mm 1 mps 755 mmHg 56%
    01:00 +23°C° 0 mm 1 mps 755 mmHg 55%
    02:00 +23°C° 0 mm 1 mps 755 mmHg 54%
    03:00 +23°C° 0 mm 1 mps 755 mmHg 53%
    04:00 +21°C° 0 mm 2 mps 755 mmHg 53%
    05:00 +25°C° 0 mm 2 mps 755 mmHg 49%
    06:00 +27°C° 0 mm 2 mps 755 mmHg 45%
    07:00 +29°C° 0 mm 2 mps 755 mmHg 41%
    08:00 +31°C° 0 mm 2 mps 755 mmHg 36%
    09:00 +35°C° 0 mm 2 mps 755 mmHg 32%
    10:00 +36°C° 0 mm 1 mps 756 mmHg 28%
    11:00 +37°C° 0 mm 2 mps 755 mmHg 26%
    12:00 +38°C° 0 mm 3 mps 755 mmHg 25%
    13:00 +40°C° 0 mm 4 mps 755 mmHg 24%
    14:00 +38°C° 0 mm 4 mps 755 mmHg 25%
    15:00 +38°C° 0 mm 4 mps 755 mmHg 26%
    16:00 +37°C° 0 mm 4 mps 755 mmHg 27%
    17:00 +34°C° 0 mm 3 mps 755 mmHg 34%
    18:00 +31°C° 0 mm 3 mps 755 mmHg 41%
    19:00 +28°C° 0 mm 2 mps 755 mmHg 48%
    20:00 +27°C° 0 mm 2 mps 755 mmHg 49%
    21:00 +27°C° 0 mm 1 mps 755 mmHg 49%
    22:00 +26°C° 0 mm 1 mps 756 mmHg 50%
    23:00 +26°C° 0 mm 1 mps 756 mmHg 50%

    30 July, Sunday

    Time Temperature Precipitation Wind Pressure Humidity
    00:00 +26°C° 0 mm 1 mps 756 mmHg 49%
    01:00 +26°C° 0 mm 1 mps 756 mmHg 49%
    02:00 +26°C° 0 mm 1 mps 755 mmHg 49%
    03:00 +25°C° 0 mm 1 mps 755 mmHg 50%
    04:00 +25°C° 0 mm 1 mps 755 mmHg 50%
    05:00 +27°C° 0 mm 1 mps 755 mmHg 47%
    06:00 +29°C° 0 mm 1 mps 755 mmHg 43%
    07:00 +31°C° 0 mm 1 mps 755 mmHg 40%
    08:00 +33°C° 0 mm 1 mps 755 mmHg 36%
    09:00 +35°C° 0 mm 1 mps 755 mmHg 32%
    10:00 +38°C° 0 mm 2 mps 755 mmHg 28%
    11:00 +39°C° 0 mm 2 mps 755 mmHg 27%
    12:00 +39°C° 0 mm 3 mps 755 mmHg 26%
    13:00 +41°C° 0 mm 4 mps 754 mmHg 25%
    14:00 +40°C° 0 mm 4 mps 754 mmHg 26%
    15:00 +38°C° 0 mm 4 mps 754 mmHg 27%
    16:00 +38°C° 0 mm 4 mps 754 mmHg 28%
    17:00 +35°C° 0 mm 4 mps 754 mmHg 33%
    18:00 +33°C° 0 mm 3 mps 754 mmHg 39%
    19:00 +29°C° 0 mm 2 mps 754 mmHg 44%
    20:00 +29°C° 0 mm 2 mps 754 mmHg 45%
    21:00 +28°C° 0 mm 2 mps 754 mmHg 46%
    22:00 +28°C° 0 mm 2 mps 755 mmHg 47%
    23:00 +27°C° 0 mm 1 mps 755 mmHg 48%
    Show more